Wheeling, WV

9:45 PM EDT on July 24, 2017 (GMT -0400)
Wheeling-Ohio County

Weather History for KHLG - December, 2013

Change the Weather History Date:

Thursday, December 26, 2013

  Actual Average Record
Temperature  
Mean Temperature 31 °F 30 °F  
Max Temperature 36 °F 37 °F 65 °F (2016)
Min Temperature 26 °F 23 °F 1 °F (2000)
Degree Days  
Heating Degree Days 34 35  
Month to date heating degree days 786 820  
Since 1 July heating degree days 1988 1948  
Cooling Degree Days 0    
Month to date cooling degree days 0  
Year to date cooling degree days 740  
Moisture  
Dew Point 23 °F    
Average Humidity 70    
Maximum Humidity 92    
Minimum Humidity 47    
Precipitation  
Precipitation 0.03 in 0.10 in 0.89 in (2008)
Month to date precipitation 3.54 2.04  
Sea Level Pressure  
Sea Level Pressure 30.22 in    
Wind  
Wind Speed 11 mph (SW)    
Max Wind Speed 24 mph    
Max Gust Speed 36 mph    
Visibility 6 miles    
Events Snow    
T = Trace of Precipitation, MM = Missing Value Source: NWS Daily Summary

Daily Weather History Graph

Daily Weather History Graph

Search for Another Location

Airport or City:

Trip Planner

Search our weather history database for the weather conditions in past years. The results will help you decide how hot, cold, wet, or windy it might be!

Date:

Astronomy

Dec. 26, 2013 Rise Set
Actual Time 7:43 AM EST 5:03 PM EST
Civil Twilight 7:13 AM EST 5:33 PM EST
Nautical Twilight 6:38 AM EST 6:07 PM EST
Astronomical Twilight 6:05 AM EST 6:41 PM EST
Moon 1:10 AM EST (12/26) 12:38 PM EST (12/26)
Length of Visible Light 10h 20m
Length of Day
9h 19m
Last Quarter, 38% of the Moon is Illuminated
Dec 26
Last Quarter
Jan 1
New
Jan 7
First Quarter
Jan 15
Full
Jan 24
Last Quarter

Hourly Weather History & Observations

Time (EST) Temp. Windchill Dew Point Humidity Pressure Visibility Wind Dir Wind Speed Gust Speed Precip Events Conditions
12:53 AM 27.0 °F 19.5 °F 25.0 °F 92% 30.22 in 1.2 mi SSW 6.9 mph - 0.02 in Snow Light Snow
1:22 AM 26.6 °F 19.1 °F 24.8 °F 93% 30.16 in 2.0 mi SSW 6.9 mph - 0.00 in Snow Light Snow
1:29 AM 26.6 °F 19.1 °F 24.8 °F 93% 30.15 in 1.5 mi SSW 6.9 mph - 0.00 in Snow Light Snow
1:39 AM 26.6 °F 18.2 °F 24.8 °F 93% 30.15 in 1.5 mi SSW 8.1 mph - 0.01 in Snow Light Snow
1:53 AM 28.0 °F 19.3 °F 25.0 °F 88% 30.20 in 1.2 mi SSW 9.2 mph - 0.01 in Snow Light Snow
2:04 AM 28.4 °F 18.5 °F 24.8 °F 86% 30.14 in 2.0 mi SSW 11.5 mph - 0.00 in Snow Light Snow
2:14 AM 28.4 °F 19.1 °F 24.8 °F 86% 30.14 in 6.0 mi SSW 10.4 mph - 0.00 in Snow Light Snow
2:40 AM 28.4 °F 18.5 °F 26.6 °F 93% 30.14 in 2.0 mi South 11.5 mph - 0.00 in Snow Light Snow
2:51 AM 28.4 °F 19.7 °F 26.6 °F 93% 30.13 in 7.0 mi South 9.2 mph - 0.00 in Snow Light Snow
2:53 AM 28.0 °F 19.3 °F 26.1 °F 92% 30.18 in 8.0 mi South 9.2 mph - 0.00 in   Overcast
3:43 AM 28.4 °F 18.0 °F 26.6 °F 93% 30.12 in 10.0 mi SSW 12.7 mph - N/A   Overcast
3:53 AM 28.9 °F 19.2 °F 26.1 °F 89% 30.17 in 10.0 mi SSW 11.5 mph 23.0 mph N/A   Overcast
4:30 AM 30.2 °F 20.2 °F 26.6 °F 86% 30.11 in 10.0 mi SSW 12.7 mph 21.9 mph N/A   Overcast
4:53 AM 30.0 °F 20.0 °F 27.0 °F 88% 30.15 in 10.0 mi South 12.7 mph - N/A   Overcast
5:53 AM 30.0 °F 20.5 °F 26.1 °F 85% 30.16 in 10.0 mi SSW 11.5 mph 21.9 mph N/A   Overcast
6:53 AM 30.0 °F 20.5 °F 25.0 °F 82% 30.17 in 10.0 mi SW 11.5 mph 19.6 mph N/A   Overcast
7:53 AM 30.9 °F 21.7 °F 25.0 °F 79% 30.20 in 10.0 mi WSW 11.5 mph 19.6 mph N/A   Overcast
8:53 AM 30.0 °F 20.5 °F 24.1 °F 79% 30.22 in 4.0 mi WSW 11.5 mph 25.3 mph 0.00 in Snow Light Snow
9:21 AM 30.2 °F 20.2 °F 24.8 °F 80% 30.18 in 4.0 mi WSW 12.7 mph 26.5 mph 0.00 in Snow Light Snow
9:49 AM 30.2 °F 19.3 °F 24.8 °F 80% 30.19 in 2.5 mi WSW 15.0 mph 21.9 mph 0.00 in Snow Light Snow
9:53 AM 30.0 °F 21.7 °F 25.0 °F 82% 30.25 in 2.0 mi WSW 9.2 mph 21.9 mph 0.00 in Snow Light Snow
10:00 AM 30.2 °F 18.5 °F 24.8 °F 80% 30.20 in 2.5 mi WSW 17.3 mph 26.5 mph 0.00 in Snow Light Snow
10:07 AM 30.2 °F 21.3 °F 24.8 °F 80% 30.20 in 7.0 mi SW 10.4 mph 26.5 mph 0.00 in Snow Light Snow
10:24 AM 30.2 °F 20.8 °F 24.8 °F 80% 30.21 in 2.0 mi WSW 11.5 mph - 0.00 in Snow Light Snow
10:34 AM 30.2 °F 18.9 °F 24.8 °F 80% 30.21 in 1.8 mi SW 16.1 mph 21.9 mph 0.00 in Snow Light Snow
10:41 AM 30.2 °F 20.2 °F 24.8 °F 80% 30.21 in 2.5 mi WSW 12.7 mph 23.0 mph 0.00 in Snow Light Snow
10:50 AM 30.2 °F 18.5 °F 24.8 °F 80% 30.20 in 4.0 mi WSW 17.3 mph 25.3 mph 0.00 in Snow Light Snow
10:53 AM 30.9 °F 20.2 °F 25.0 °F 79% 30.26 in 4.0 mi WSW 15.0 mph 25.3 mph 0.00 in Snow Light Snow
11:05 AM 30.2 °F 18.5 °F 24.8 °F 80% 30.21 in 2.5 mi WSW 17.3 mph 25.3 mph 0.00 in Snow Light Snow
11:07 AM 30.2 °F 19.3 °F 24.8 °F 80% 30.21 in 3.0 mi West 15.0 mph 25.3 mph 0.00 in Snow Light Snow
11:26 AM 32.0 °F 19.5 °F 23.0 °F 69% 30.21 in 10.0 mi WSW 21.9 mph 27.6 mph 0.00 in   Mostly Cloudy
11:53 AM 32.0 °F 22.5 °F 21.9 °F 66% 30.27 in 10.0 mi West 12.7 mph 26.5 mph 0.00 in   Partly Cloudy
12:53 PM 33.1 °F 23.4 °F 19.9 °F 59% 30.26 in 10.0 mi West 13.8 mph 25.3 mph N/A   Partly Cloudy
1:53 PM 35.1 °F 26.4 °F 19.0 °F 52% 30.25 in 10.0 mi West 12.7 mph 23.0 mph N/A   Clear
2:53 PM 35.1 °F 25.9 °F 19.0 °F 52% 30.26 in 10.0 mi WSW 13.8 mph 20.7 mph N/A   Clear
3:53 PM 36.0 °F 28.5 °F 17.1 °F 46% 30.27 in 10.0 mi West 10.4 mph - N/A   Clear
4:53 PM 34.0 °F 25.5 °F 16.0 °F 48% 30.28 in 10.0 mi West 11.5 mph 19.6 mph N/A   Clear
5:53 PM 33.1 °F 22.6 °F 16.0 °F 50% 30.31 in 10.0 mi West 16.1 mph 26.5 mph N/A   Clear
6:53 PM 32.0 °F 24.2 °F 17.1 °F 54% 30.34 in 10.0 mi West 9.2 mph - N/A   Clear
7:53 PM 30.0 °F 21.7 °F 17.1 °F 59% 30.36 in 10.0 mi West 9.2 mph - N/A   Clear
8:53 PM 28.9 °F 21.9 °F 17.1 °F 61% 30.36 in 10.0 mi WSW 6.9 mph - N/A   Clear
9:53 PM 28.9 °F 23.9 °F 17.1 °F 61% 30.37 in 10.0 mi WSW 4.6 mph - N/A   Mostly Cloudy
10:53 PM 28.9 °F 25.2 °F 17.1 °F 61% 30.37 in 10.0 mi SW 3.5 mph - N/A   Overcast
11:53 PM 28.0 °F 24.2 °F 18.0 °F 66% 30.37 in 10.0 mi SSW 3.5 mph - N/A   Overcast